Temperature
19 19 19 19 18 18 19 20 20 20 20 20 20 20 19 18 19 19 19 19 19 19 19 19 19 19 19 19 19 19 19 19 19 19 19 19 19 19 19 19 19 19 19 19 19 19 19 19 18
19 19 19 18 18 19 20 20 20 20 20 20 20 19 19 18 18 19 19 19 19 19 19 19 18 18 18 18 18 18 18 19 19 19 19 19 19 19 19 19 19 19 19 19 19 19 19 19 18
19 19 19 17 18 19 20 20 19 20 20 20 19 19 18 18 18 19 19 18 18 18 18 18 18 18 18 18 18 18 18 18 18 18 18 18 18 18 18 18 19 19 19 19 19 19 19 18 18
20 19 18 18 19 19 20 20 20 20 20 20 19 18 18 18 19 19 19 18 18 18 18 18 18 18 18 18 18 18 18 18 18 18 18 18 18 18 18 18 18 18 18 18 18 18 18 18 18
20 19 18 19 20 20 19 20 20 20 20 19 19 18 18 18 19 19 18 18 18 18 18 18 18 18 17 17 17 17 17 17 17 17 17 17 18 18 18 18 18 18 18 18 18 18 18 18 18
20 18 18 19 20 20 20 20 20 20 20 19 19 18 18 18 18 18 18 18 18 18 18 18 18 17 17 17 17 17 17 17 17 17 17 17 17 17 17 17 17 18 18 18 18 18 18 18 18
19 18 19 19 19 20 20 20 20 19 19 19 19 18 18 18 18 18 18 18 18 18 18 18 18 17 17 17 17 17 17 17 17 17 17 17 17 17 17 17 17 17 17 17 17 18 18 18 18
21 18 19 19 20 20 21 21 21 20 19 20 20 18 18 19 18 18 18 18 18 18 18 18 17 17 17 17 16 16 16 16 16 16 16 16 17 17 17 17 17 17 17 17 17 17 18 18 18
20 18 19 19 19 20 20 20 20 20 20 19 19 20 20 19 19 18 18 18 18 18 18 17 17 17 16 16 16 16 16 16 16 16 16 16 16 16 16 16 17 17 17 17 17 17 17 17 17
20 18 20 20 19 19 20 20 20 20 19 19 19 20 19 19 19 19 18 18 18 18 17 17 17 16 16 16 16 16 16 16 16 16 16 16 16 16 16 16 16 16 16 17 17 17 17 17 17
19 19 20 20 20 20 20 20 21 20 19 20 20 20 19 19 19 19 19 18 18 17 17 17 16 16 16 16 16 15 15 15 15 15 15 15 16 16 16 16 16 16 16 16 17 17 17 17 17
19 19 20 20 20 20 20 20 20 20 21 22 21 20 20 19 19 19 19 18 18 17 17 17 16 16 16 15 15 15 15 15 15 15 15 15 15 15 15 15 16 16 16 16 16 16 17 17 17
19 19 20 20 20 20 20 20 20 21 22 21 21 20 20 19 19 19 18 18 18 17 17 16 16 16 15 15 15 15 15 15 15 14 14 14 15 15 15 15 15 15 15 16 16 16 16 17 17
19 19 19 20 20 20 20 20 20 21 21 21 20 20 20 19 19 19 18 18 17 17 17 16 16 15 15 15 15 14 14 14 14 14 14 14 14 14 14 14 15 15 15 15 15 16 16 16 16
19 19 19 19 19 20 20 19 19 21 21 20 20 20 20 19 19 19 19 18 17 17 17 16 15 15 15 14 14 14 14 14 14 14 14 14 14 14 14 14 14 14 15 15 15 15 16 16 16
19 19 19 20 19 20 20 19 20 21 20 20 20 20 19 19 19 19 18 18 17 17 16 16 15 15 14 14 14 14 14 14 13 13 13 13 13 13 14 14 14 14 14 14 15 15 15 15 16
18 18 19 20 19 19 19 19 20 20 20 19 19 19 19 19 19 18 18 18 17 17 16 16 15 15 14 14 14 14 13 13 13 13 13 13 13 13 13 13 13 14 14 14 14 14 15 15 15
19 18 19 20 20 19 18 18 19 19 19 19 19 19 19 19 19 19 18 17 17 16 16 15 15 14 14 14 14 13 13 13 13 13 13 13 13 13 13 13 13 13 13 14 14 14 14 15 15
20 19 20 20 20 19 18 18 19 19 18 18 18 19 19 19 19 18 18 17 17 16 16 15 15 14 14 14 13 13 13 13 13 13 13 13 13 13 13 13 13 13 13 13 13 14 14 14 15
20 20 19 20 20 19 18 18 18 18 18 18 18 19 19 19 18 18 18 17 17 16 15 15 14 14 14 13 13 13 13 13 13 13 13 13 12 12 12 12 12 13 13 13 13 13 13 14 14
19 19 20 20 20 19 19 18 18 18 18 18 19 19 19 19 19 18 18 17 16 16 15 15 14 14 13 13 13 13 13 13 13 13 13 12 12 12 12 12 12 12 13 13 13 13 13 13 14
20 20 20 20 19 18 19 17 18 17 17 17 18 18 19 19 19 18 18 17 16 16 15 15 14 14 13 13 13 13 13 12 12 12 12 12 12 12 12 12 12 12 12 12 12 13 13 13 13
20 20 19 19 18 17 17 17 17 17 18 17 17 18 19 19 19 18 18 17 16 16 15 14 14 14 13 13 13 13 12 12 12 12 12 12 12 12 12 12 12 12 12 12 12 12 13 13 13
19 18 17 15 16 17 18 17 17 16 17 18 17 18 19 19 19 18 17 17 16 15 15 14 14 14 13 13 13 13 12 12 12 12 12 12 12 12 12 12 12 12 12 12 12 12 12 12 13
19 18 17 18 16 17 17 17 16 17 17 17 18 19 19 19 19 18 17 17 16 15 15 14 14 14 13 13 13 13 12 12 12 12 12 12 12 12 12 12 12 12 12 12 12 12 12 12 12
19 18 18 18 17 16 17 17 17 18 18 19 19 19 19 19 19 18 18 17 16 16 15 14 14 14 13 13 13 13 12 12 12 12 12 12 12 12 12 12 12 12 12 12 12 12 12 12 12
18 17 17 16 17 16 16 16 17 19 18 18 18 18 19 19 19 18 18 17 16 16 15 14 14 14 13 13 13 13 12 12 12 12 12 12 12 12 12 12 12 12 12 12 12 12 12 12 12
18 15 15 16 17 17 17 17 17 19 18 17 17 18 19 20 19 18 18 17 16 16 15 14 14 14 13 13 13 13 12 12 12 12 12 12 12 12 12 12 12 12 12 12 12 12 12 12 12
18 17 15 13 15 15 16 17 17 17 18 17 17 19 20 20 19 19 18 17 16 16 15 15 14 14 13 13 13 13 13 12 12 12 12 12 12 12 12 12 12 12 12 12 12 12 12 12 12
20 18 15 17 16 14 15 16 17 17 17 17 19 20 20 20 20 19 18 17 17 16 15 15 14 14 13 13 13 13 13 13 12 12 12 12 12 12 12 12 12 12 12 12 12 12 12 12 12
Wind_Speed
4 7 4 3 4 3 1 2 2 2 2 2 4 6 6 5 3 2 2 2 3 4 5 6 6 6 6 5 5 4 4 4 4 5 5 6 6 6 6 6 5 4 4 3 2 2 1 1 1
6 4 4 3 3 2 2 2 1 1 3 2 4 5 5 4 2 2 2 2 4 4 5 5 6 5 5 4 4 4 4 5 5 6 6 7 7 7 7 7 6 6 5 5 4 3 2 1 1
6 4 3 3 1 2 2 2 1 2 3 2 3 4 3 3 2 1 0 3 4 3 3 3 4 3 3 3 3 4 5 5 6 7 7 8 8 8 8 8 8 7 7 6 6 5 5 4 3
4 3 3 2 0 2 2 2 1 2 3 4 3 4 3 3 1 1 3 4 4 2 1 1 1 2 2 3 4 4 5 6 6 7 8 8 9 9 9 9 9 9 8 8 7 7 6 6 5
4 3 3 1 1 2 1 2 1 1 2 3 3 4 2 3 2 5 5 4 4 2 1 1 1 2 3 3 4 5 5 6 7 8 8 8 8 9 9 10 10 10 10 9 9 8 8 7 7
3 3 3 1 2 1 1 1 1 3 3 2 3 4 1 1 3 4 5 4 3 3 1 2 2 2 3 4 5 5 6 7 8 9 9 9 9 9 10 11 11 11 11 11 10 10 10 9 8
3 3 2 2 1 2 2 2 3 4 3 3 5 5 1 1 2 4 5 4 2 2 1 2 3 4 4 5 5 6 7 7 8 9 9 9 8 9 9 10 10 11 11 11 11 10 10 10 9
4 3 1 1 2 2 1 2 2 3 3 2 4 6 5 5 4 5 4 4 2 2 2 2 3 4 5 5 6 7 7 8 9 9 8 8 8 8 9 9 10 10 10 10 10 11 11 11 10
4 3 2 4 4 3 2 3 2 2 4 2 1 4 4 7 7 6 3 2 2 1 2 2 3 4 5 5 5 7 7 8 9 8 8 8 7 7 7 8 9 9 9 9 9 10 11 11 10
4 3 5 3 4 3 2 3 5 4 3 2 2 3 6 8 7 6 5 3 2 0 1 2 2 2 3 4 5 6 6 7 7 7 7 6 6 6 6 7 8 8 7 8 8 9 9 8 7
4 5 3 2 4 3 1 2 4 7 4 7 7 8 7 6 6 6 5 4 3 2 0 1 1 2 2 2 3 4 5 6 6 7 6 5 5 5 5 5 6 7 6 5 6 6 5 5 5
3 3 2 2 3 2 3 3 3 6 7 6 9 10 9 8 8 7 6 4 2 2 1 1 1 1 2 2 2 3 3 3 4 6 6 4 2 2 3 2 4 4 4 3 3 3 4 4 5
3 2 1 1 1 2 2 3 3 5 3 5 8 8 9 8 7 5 4 4 3 3 2 1 1 1 1 2 2 2 2 3 4 5 5 3 2 2 2 2 3 3 3 2 3 3 3 3 3
2 1 1 1 0 0 2 1 2 6 4 7 8 8 8 8 7 5 5 4 4 3 2 2 1 0 1 1 1 2 2 3 3 4 5 4 2 1 2 3 3 3 3 3 3 3 3 3 2
2 2 2 2 2 1 3 3 6 5 7 7 8 8 7 7 6 7 6 6 5 3 2 2 1 0 1 2 2 2 2 3 3 3 5 4 3 2 2 2 3 3 4 3 2 2 1 2 2
3 3 2 3 3 2 4 7 7 5 8 8 7 7 6 6 6 6 6 5 4 3 2 1 1 1 2 2 2 2 2 3 3 4 4 5 4 3 2 2 3 3 3 2 2 1 1 1 1
2 2 4 4 4 4 5 7 4 4 9 9 8 7 6 5 5 5 6 5 4 3 2 1 2 2 2 3 2 2 2 2 3 4 4 4 5 4 2 2 3 3 2 2 2 0 0 1 1
5 4 4 5 4 6 6 8 6 4 8 9 7 6 6 7 7 6 5 5 4 2 1 0 1 2 2 2 3 3 3 3 3 3 4 4 4 4 2 2 3 2 1 2 1 1 1 1 1
5 4 4 5 3 6 7 8 8 4 6 8 7 7 8 7 5 4 5 4 3 1 1 1 1 2 2 2 2 2 3 3 3 3 4 5 5 4 2 2 2 1 1 2 1 1 1 1 0
4 4 4 3 1 4 4 7 6 4 6 8 9 10 9 6 4 5 4 4 3 2 2 1 2 2 1 1 1 2 2 3 3 3 4 5 5 4 3 2 2 2 1 2 1 0 0 1 0
5 6 5 3 2 2 2 7 5 2 2 4 6 6 7 9 9 7 5 5 3 3 4 3 2 2 2 2 1 2 2 3 3 4 4 5 6 5 4 3 2 2 2 2 2 1 1 1 1
5 5 4 3 2 2 1 4 7 4 4 4 5 6 7 7 7 7 6 6 5 5 3 3 3 3 2 2 1 1 2 2 3 4 4 6 5 5 4 3 2 2 2 2 3 2 2 2 1
4 3 3 2 3 1 1 2 8 3 5 7 7 7 7 8 8 8 7 7 5 4 3 3 2 3 2 2 1 1 2 2 4 4 5 5 5 5 4 3 2 2 2 2 2 1 2 2 2
5 6 7 6 5 1 3 4 7 5 7 5 5 7 8 7 7 6 5 4 4 3 2 2 3 3 2 2 2 1 3 4 5 5 5 5 5 4 5 4 3 3 2 2 2 2 2 3 3
5 6 4 4 4 5 3 3 9 7 7 7 7 8 8 7 7 6 6 6 6 5 4 3 3 4 3 3 3 3 3 3 4 4 4 5 4 4 6 5 4 3 2 2 2 2 2 2 3
4 7 6 4 4 5 3 5 8 6 5 4 4 5 6 7 7 8 8 7 6 6 5 4 4 4 4 3 4 3 3 2 3 4 4 4 4 5 5 5 4 4 3 1 1 1 1 1 2
6 3 5 6 2 2 6 7 8 2 1 1 3 5 7 8 8 8 7 7 7 6 6 5 5 5 4 4 4 4 3 3 4 4 4 4 4 4 5 5 4 4 3 1 0 1 1 1 2
5 9 6 5 3 3 6 6 5 7 7 5 5 7 8 7 7 7 7 7 7 6 5 4 4 5 4 3 3 3 3 3 4 4 5 5 5 5 5 5 5 4 3 2 0 1 1 1 1
5 5 6 5 5 5 3 7 7 8 8 9 10 9 9 9 8 8 7 7 6 4 4 4 4 4 4 3 3 3 4 3 3 4 5 5 4 5 5 5 4 4 3 3 1 1 1 1 1
5 7 8 5 4 5 4 8 7 8 8 8 9 8 7 8 7 7 7 5 5 5 5 5 4 4 4 3 3 3 3 3 4 4 5 4 4 5 4 4 4 4 3 3 2 2 1 1 1
Wind_Direction
140 102 84 56 51 52 356 305 288 322 19 29 48 76 89 80 88 124 300 105 135 142 176 196 195 192 192 197 206 209 215 222 226 222 220 219 214 208 205 205 206 205 203 202 202 203 180 149 112
114 96 61 55 73 57 315 302 313 311 145 123 54 63 75 70 57 59 5 100 120 143 170 193 202 202 206 214 225 233 239 246 247 244 239 235 232 226 222 223 222 223 221 222 225 230 229 236 253
117 87 96 80 101 179 220 273 351 43 105 89 66 49 73 62 34 54 108 122 116 128 160 197 215 222 228 244 250 256 262 266 266 262 255 248 244 240 235 234 234 235 233 233 234 236 238 243 251
100 64 69 89 169 239 218 239 167 111 77 57 89 70 59 12 356 130 118 116 121 120 148 193 244 260 260 271 283 288 290 290 288 282 272 265 259 253 247 244 244 244 243 242 239 237 239 243 250
69 85 73 54 275 280 272 267 231 132 73 59 90 100 64 358 57 105 116 110 122 117 75 353 307 307 301 295 294 293 298 303 303 301 294 286 278 270 263 257 254 252 250 247 246 242 241 244 248
73 80 93 211 261 282 268 240 121 93 101 109 114 121 137 354 94 117 123 123 132 134 95 5 340 337 331 318 314 316 314 310 309 309 309 306 300 288 279 271 265 261 258 254 250 245 244 244 246
119 112 161 209 250 284 209 154 134 126 128 147 138 126 160 231 153 126 117 118 119 119 75 9 353 350 341 331 326 327 324 326 323 316 312 311 313 305 293 290 285 277 268 260 254 250 250 247 247
131 105 103 227 209 246 200 143 134 135 137 118 132 148 188 197 148 116 101 87 82 67 38 1 355 1 356 344 339 340 338 337 335 331 327 325 323 318 305 297 291 287 281 270 260 254 254 253 250
107 86 217 221 199 231 194 143 108 93 112 98 142 175 177 139 127 118 101 67 60 48 18 4 2 5 0 350 359 359 354 351 346 343 340 342 340 329 315 306 297 291 289 286 275 265 260 259 256
114 163 222 208 189 205 204 166 157 126 120 132 102 101 115 128 140 147 156 166 174 230 339 8 4 2 -0 357 1 360 356 353 349 342 340 342 335 326 318 316 316 311 307 304 292 278 266 259 254
160 194 223 205 191 185 175 159 152 144 193 201 183 167 148 149 157 170 180 180 188 195 222 1 359 2 5 352 352 356 355 353 351 351 348 344 340 333 330 327 327 328 324 318 308 294 269 248 239
168 229 208 210 160 166 170 158 166 193 221 200 176 161 158 166 179 187 188 184 175 170 207 288 355 9 357 357 350 351 348 344 344 345 351 353 346 340 332 326 322 322 314 305 298 281 270 252 234
192 231 245 266 143 173 147 192 212 236 236 147 146 152 168 178 188 194 181 174 170 183 219 259 300 352 342 353 339 356 335 330 329 341 350 355 341 333 333 322 329 323 317 301 290 278 270 260 236
199 135 338 332 268 167 151 245 221 246 155 145 157 174 182 186 187 175 171 179 189 201 220 247 262 306 354 352 331 320 329 332 338 343 344 350 343 320 331 329 324 318 315 301 283 274 263 255 238
90 67 357 270 194 185 121 277 237 227 149 165 179 185 185 194 186 185 186 188 195 200 222 258 231 2 347 337 331 340 333 342 342 340 344 348 342 329 315 318 313 305 312 308 299 293 263 248 244
77 71 292 263 183 170 155 255 259 183 164 187 194 194 191 199 199 199 190 193 194 187 211 279 321 357 340 338 327 329 338 346 337 336 338 340 339 334 323 313 304 306 318 317 297 288 287 264 260
70 186 241 273 195 162 184 247 278 162 174 197 201 200 198 205 212 206 196 198 192 187 204 270 330 342 339 338 334 334 341 342 334 336 335 333 336 335 323 299 294 313 319 328 314 318 261 260 272
203 208 231 240 205 172 210 252 271 182 192 208 206 202 205 210 217 203 194 191 178 177 202 288 344 345 342 342 343 343 342 336 338 336 332 330 331 333 324 289 297 312 321 328 328 300 277 251 260
169 183 233 252 196 180 225 258 270 207 203 216 213 207 213 219 219 192 185 171 158 169 200 281 313 325 351 351 339 332 323 321 327 328 336 336 332 330 319 304 304 303 283 278 293 300 286 270 302
161 197 243 284 167 187 250 276 278 215 213 214 211 209 210 203 195 192 186 176 181 195 219 247 260 294 315 294 275 263 276 293 293 306 324 333 336 332 319 307 297 286 275 292 283 236 283 275 117
194 202 214 216 46 49 347 315 304 305 248 221 206 200 199 197 197 196 193 196 195 211 218 223 237 268 300 320 336 342 345 337 340 334 330 327 330 327 319 296 283 275 246 252 251 209 183 236 276
223 226 194 163 108 301 57 287 294 302 299 246 215 199 202 203 195 195 197 201 208 218 221 227 242 269 294 323 356 356 345 322 301 303 308 317 326 326 326 316 291 273 255 252 254 217 192 175 216
194 67 104 102 129 8 3 188 288 321 272 257 229 212 208 204 197 199 202 207 213 215 217 230 254 279 297 313 315 333 312 287 296 307 320 327 327 328 330 324 313 295 269 257 254 242 206 186 188
130 75 58 51 72 321 244 180 279 247 232 251 225 208 205 200 198 202 204 201 216 219 227 234 253 275 295 310 307 292 299 309 320 326 330 328 324 324 330 326 321 305 279 257 245 231 212 201 193
96 91 33 1 8 260 276 205 251 259 242 230 223 212 203 194 191 197 202 207 217 224 235 238 246 268 288 300 297 291 289 296 302 308 314 321 323 319 322 327 320 310 287 263 233 221 221 203 196
148 138 157 198 230 281 312 240 257 263 274 239 214 195 189 194 198 206 210 209 217 229 235 234 242 262 279 287 293 294 294 290 292 297 301 303 302 301 307 317 315 311 305 289 250 224 225 206 212
128 147 156 130 159 287 288 289 303 256 262 185 177 179 202 207 207 212 213 212 219 228 231 228 234 254 270 278 289 296 301 299 303 307 304 301 303 309 319 326 330 329 329 309 235 223 232 223 219
131 140 104 115 146 272 298 288 260 258 244 232 218 217 223 217 214 215 213 214 220 225 232 229 230 243 259 273 280 290 295 299 305 314 317 316 317 321 327 335 338 338 343 348 335 241 246 237 246
119 105 105 110 145 157 268 278 231 228 225 221 228 226 221 215 213 212 213 214 217 222 223 227 236 244 260 269 278 298 304 309 317 320 318 319 321 329 332 335 337 340 344 349 353 309 270 258 266
175 166 149 153 201 172 186 268 265 243 239 224 232 232 223 214 211 208 207 206 211 219 222 225 232 240 250 258 271 287 301 317 326 324 324 326 328 332 333 335 342 343 345 345 342 319 314 274 270
Height
1517 1518 1519 1521 1523 1528 1529 1524 1520 1519 1517 1517 1516 1516 1518 1521 1524 1529 1525 1523 1524 1525 1526 1527 1528 1529 1529 1530 1531 1531 1531 1532 1532 1532 1532 1532 1532 1532 1532 1532 1532 1532 1532 1532 1531 1531 1531 1531 1531
1517 1518 1520 1521 1527 1535 1530 1522 1520 1518 1517 1518 1518 1518 1519 1521 1523 1523 1523 1524 1524 1525 1526 1527 1528 1529 1529 1529 1530 1530 1530 1530 1531 1530 1531 1530 1530 1531 1531 1531 1531 1531 1531 1531 1531 1531 1531 1531 1531
1517 1519 1521 1523 1528 1532 1528 1520 1519 1518 1518 1518 1519 1520 1521 1523 1523 1524 1524 1524 1525 1526 1527 1528 1528 1528 1528 1528 1529 1529 1529 1529 1529 1529 1529 1529 1529 1529 1529 1529 1530 1530 1530 1530 1530 1530 1530 1530 1530
1518 1520 1522 1526 1528 1524 1521 1519 1518 1518 1519 1519 1520 1522 1523 1524 1524 1525 1525 1525 1526 1527 1527 1528 1528 1528 1528 1528 1528 1528 1527 1527 1527 1527 1527 1527 1527 1527 1527 1528 1528 1528 1528 1528 1529 1529 1529 1529 1529
1518 1519 1524 1528 1525 1521 1518 1518 1518 1518 1519 1520 1520 1522 1524 1525 1524 1525 1525 1526 1527 1527 1528 1528 1527 1527 1527 1527 1527 1526 1526 1526 1525 1525 1525 1525 1525 1525 1525 1526 1526 1527 1527 1527 1527 1527 1527 1528 1528
1518 1520 1529 1531 1525 1520 1518 1518 1518 1519 1519 1520 1521 1522 1524 1525 1525 1526 1526 1527 1527 1528 1528 1528 1527 1527 1526 1526 1525 1525 1524 1524 1523 1523 1523 1523 1523 1523 1523 1523 1524 1524 1525 1525 1525 1525 1526 1526 1526
1519 1522 1526 1526 1525 1521 1518 1517 1518 1519 1519 1520 1521 1522 1524 1525 1526 1526 1527 1527 1528 1528 1528 1527 1527 1526 1525 1525 1524 1523 1523 1522 1522 1521 1520 1520 1520 1520 1520 1520 1521 1521 1522 1522 1523 1523 1524 1524 1525
1517 1521 1524 1525 1524 1521 1517 1517 1517 1518 1519 1520 1521 1521 1523 1524 1525 1526 1527 1527 1528 1528 1528 1527 1526 1525 1525 1524 1523 1522 1521 1520 1520 1519 1519 1518 1518 1517 1518 1518 1518 1518 1519 1520 1520 1521 1521 1522 1523
1516 1524 1527 1523 1522 1519 1516 1516 1518 1518 1519 1519 1520 1521 1522 1523 1525 1526 1527 1527 1528 1527 1527 1526 1526 1525 1524 1522 1521 1521 1520 1519 1518 1517 1517 1516 1515 1515 1515 1515 1515 1516 1516 1516 1517 1518 1518 1519 1520
1515 1524 1520 1516 1516 1515 1515 1515 1516 1518 1518 1519 1520 1521 1522 1523 1524 1525 1526 1527 1527 1527 1526 1526 1525 1524 1523 1521 1520 1519 1518 1517 1516 1515 1515 1514 1513 1513 1513 1513 1513 1513 1513 1513 1514 1515 1516 1516 1517
1513 1516 1513 1512 1513 1513 1514 1514 1515 1516 1518 1517 1517 1519 1521 1523 1524 1525 1525 1526 1526 1526 1526 1525 1524 1523 1521 1520 1519 1517 1516 1515 1514 1513 1513 1512 1512 1511 1511 1510 1510 1510 1510 1511 1511 1512 1512 1513 1515
1513 1511 1511 1511 1511 1512 1513 1514 1515 1515 1514 1515 1516 1518 1520 1522 1523 1524 1525 1526 1526 1526 1525 1524 1523 1522 1520 1519 1517 1516 1514 1513 1512 1511 1510 1510 1509 1509 1508 1508 1508 1508 1508 1508 1508 1509 1510 1510 1511
1511 1511 1510 1510 1511 1512 1512 1513 1514 1513 1513 1515 1516 1518 1520 1521 1522 1524 1525 1525 1525 1525 1525 1524 1522 1521 1519 1517 1516 1514 1513 1511 1510 1509 1508 1508 1507 1506 1506 1506 1506 1505 1505 1505 1506 1506 1507 1507 1508
1510 1510 1511 1511 1511 1511 1512 1513 1514 1511 1512 1514 1516 1517 1519 1520 1522 1523 1524 1524 1524 1524 1524 1523 1521 1520 1518 1516 1514 1513 1511 1510 1508 1507 1506 1505 1505 1504 1503 1503 1503 1503 1503 1503 1503 1503 1504 1505 1505
1510 1512 1512 1511 1511 1512 1513 1515 1511 1509 1511 1513 1515 1516 1518 1520 1521 1522 1523 1524 1524 1524 1523 1522 1520 1519 1517 1515 1513 1512 1510 1508 1507 1506 1504 1503 1502 1502 1501 1501 1500 1500 1500 1500 1500 1501 1501 1502 1502
1512 1515 1519 1511 1510 1511 1517 1519 1508 1509 1510 1512 1514 1516 1517 1519 1520 1521 1522 1523 1523 1523 1522 1521 1520 1518 1516 1514 1512 1511 1509 1507 1505 1504 1503 1502 1501 1500 1499 1498 1498 1497 1497 1497 1498 1498 1498 1499 1499
1517 1522 1520 1514 1510 1511 1515 1515 1507 1508 1509 1510 1512 1514 1516 1517 1519 1520 1521 1522 1522 1522 1521 1520 1519 1517 1515 1514 1512 1510 1508 1506 1504 1503 1501 1500 1499 1498 1497 1496 1495 1495 1495 1495 1495 1495 1495 1496 1497
1520 1520 1518 1515 1509 1511 1514 1512 1507 1507 1508 1509 1511 1512 1514 1515 1517 1518 1520 1521 1521 1521 1520 1519 1518 1516 1514 1513 1511 1509 1507 1505 1503 1501 1500 1498 1497 1495 1494 1493 1493 1493 1492 1492 1492 1493 1493 1494 1494
1509 1514 1515 1511 1507 1510 1513 1511 1506 1506 1507 1508 1509 1510 1512 1514 1516 1517 1518 1519 1519 1519 1519 1518 1517 1515 1513 1512 1510 1508 1506 1504 1502 1500 1498 1496 1495 1493 1492 1491 1491 1490 1490 1490 1490 1490 1491 1492 1492
1509 1513 1514 1510 1507 1509 1512 1510 1505 1504 1504 1504 1505 1507 1509 1512 1514 1515 1516 1517 1518 1518 1518 1517 1516 1514 1513 1511 1509 1507 1505 1503 1501 1499 1497 1495 1493 1491 1490 1489 1488 1488 1488 1488 1488 1488 1489 1489 1490
1509 1511 1511 1512 1510 1510 1512 1514 1507 1503 1502 1502 1503 1505 1507 1509 1511 1513 1515 1516 1517 1517 1517 1516 1515 1513 1512 1510 1508 1506 1504 1502 1500 1498 1496 1493 1491 1490 1488 1487 1486 1486 1485 1485 1486 1486 1486 1487 1488
1510 1503 1505 1509 1516 1522 1518 1530 1512 1506 1503 1501 1502 1503 1505 1507 1510 1512 1513 1514 1515 1516 1516 1515 1513 1512 1511 1509 1507 1505 1503 1501 1499 1496 1494 1492 1490 1488 1487 1485 1484 1484 1483 1483 1483 1484 1484 1485 1486
1504 1502 1506 1510 1516 1524 1522 1529 1519 1508 1505 1501 1500 1501 1503 1505 1508 1510 1512 1513 1514 1515 1514 1514 1512 1511 1510 1508 1506 1504 1502 1500 1498 1496 1494 1491 1489 1487 1485 1484 1482 1482 1481 1481 1481 1481 1482 1483 1484
1501 1507 1513 1520 1525 1533 1523 1529 1524 1512 1503 1499 1498 1499 1501 1504 1506 1509 1511 1512 1513 1513 1513 1512 1511 1510 1509 1507 1505 1503 1501 1499 1497 1495 1493 1490 1488 1486 1484 1482 1481 1480 1479 1479 1479 1479 1480 1481 1482
1503 1517 1532 1533 1541 1537 1523 1526 1520 1502 1498 1496 1496 1497 1499 1502 1505 1507 1509 1510 1511 1511 1511 1511 1510 1509 1508 1506 1504 1503 1501 1499 1496 1494 1492 1489 1487 1485 1483 1481 1479 1478 1477 1477 1477 1477 1478 1479 1479
1505 1513 1531 1540 1543 1537 1525 1526 1510 1496 1494 1493 1494 1496 1498 1501 1503 1505 1507 1508 1509 1510 1510 1510 1509 1508 1507 1505 1504 1502 1500 1498 1496 1494 1491 1489 1486 1484 1482 1479 1478 1476 1475 1475 1475 1475 1476 1477 1477
1507 1513 1515 1529 1533 1537 1531 1519 1503 1494 1493 1493 1494 1495 1496 1499 1501 1503 1505 1506 1507 1508 1508 1508 1508 1507 1506 1504 1503 1501 1499 1497 1495 1493 1491 1488 1486 1484 1481 1479 1477 1475 1474 1473 1473 1474 1474 1475 1475
1500 1509 1522 1530 1539 1541 1532 1524 1515 1498 1494 1493 1493 1493 1494 1497 1499 1501 1503 1504 1506 1506 1507 1507 1506 1505 1504 1503 1502 1500 1499 1497 1495 1492 1490 1488 1486 1483 1481 1478 1476 1474 1473 1473 1472 1472 1473 1473 1474
1505 1511 1519 1530 1532 1542 1541 1527 1498 1493 1490 1490 1490 1490 1492 1494 1496 1499 1501 1502 1504 1505 1505 1505 1505 1504 1503 1502 1501 1499 1498 1496 1494 1492 1490 1488 1485 1483 1480 1478 1476 1474 1473 1472 1471 1471 1471 1472 1472
1495 1502 1513 1523 1528 1535 1538 1525 1489 1488 1486 1487 1487 1488 1490 1492 1494 1496 1498 1500 1501 1502 1503 1503 1503 1503 1502 1501 1500 1499 1497 1495 1494 1492 1490 1487 1485 1483 1481 1479 1476 1474 1473 1472 1471 1470 1470 1470 1470